Tracking 29892 objects as of 21-Nov-2024
HD Live streaming from Space Station
objects crossing your sky now

CONNECTA T3.2

Track CONNECTA T3.2 now!
10-day predictions
CONNECTA T3.2 is classified as:


NORAD ID: 58268
Int'l Code: 2023-174N
Perigee: 470.2 km
Apogee: 481.4 km
Inclination: 97.4 °
Period: 94.0 minutes
Semi major axis: 6846 km
RCS: Unknown
Launch date: November 11, 2023
Source: (TUR)
Launch site: AIR FORCE WESTERN TEST RANGE (AFWTR)

Uplink (MHz):
Downlink (MHz): 401.525/401.540*/2071.000/2240.000
Beacon (MHz):
Mode: 4k8*/9k6 GMSK
Call sign: CONT32
Status: Active

Your satellite tracking list
Your tracking list is empty




NASA's NSSDC Master Catalog

Two Line Element Set (TLE):
1 58268U 23174N   24326.16094690  .00045379  00000-0  14452-2 0  9994
2 58268  97.4378  39.6480 0008184  54.2972 305.9030 15.32389303 57615
Source of the keplerian elements: AFSPC